TimeCST,TemperatureF,Dew PointF,Humidity,Sea Level PressureIn,VisibilityMPH,Wind Direction,Wind SpeedMPH,Gust SpeedMPH,PrecipitationIn,Events,Conditions,WindDirDegrees,DateUTC
12:53 AM,37.0,28.0,70,29.83,10.0,NE,3.5,-,N/A,,Clear,50,2014-02-14 06:53:00
1:53 AM,37.0,28.0,70,29.83,10.0,Calm,Calm,-,N/A,,Clear,0,2014-02-14 07:53:00
2:53 AM,33.1,27.0,78,29.79,10.0,ENE,4.6,-,N/A,,Clear,60,2014-02-14 08:53:00
3:53 AM,35.1,27.0,72,29.77,10.0,Calm,Calm,-,N/A,,Clear,0,2014-02-14 09:53:00
4:53 AM,35.1,28.0,76,29.75,10.0,NE,5.8,-,N/A,,Clear,40,2014-02-14 10:53:00
5:53 AM,37.0,28.9,73,29.76,10.0,Calm,Calm,-,N/A,,Clear,0,2014-02-14 11:53:00
6:53 AM,37.0,30.0,76,29.75,10.0,NE,3.5,-,N/A,,Partly Cloudy,50,2014-02-14 12:53:00
7:53 AM,39.0,30.9,73,29.75,10.0,NW,3.5,-,N/A,,Mostly Cloudy,310,2014-02-14 13:53:00
8:53 AM,39.9,30.9,70,29.78,10.0,South,4.6,-,N/A,,Mostly Cloudy,190,2014-02-14 14:53:00
9:53 AM,44.1,33.1,65,29.76,10.0,Variable,4.6,-,N/A,,Mostly Cloudy,0,2014-02-14 15:53:00
10:53 AM,48.0,34.0,58,29.79,10.0,WSW,4.6,-,N/A,,Overcast,240,2014-02-14 16:53:00
11:53 AM,57.9,37.9,47,29.80,10.0,NW,9.2,-,N/A,,Clear,320,2014-02-14 17:53:00
12:53 PM,61.0,32.0,34,29.82,10.0,NNW,23.0,33.4,N/A,,Clear,340,2014-02-14 18:53:00
1:53 PM,61.0,28.0,29,29.85,10.0,NNW,23.0,38.0,N/A,,Clear,330,2014-02-14 19:53:00
2:53 PM,61.0,28.0,29,29.87,10.0,NNW,25.3,32.2,N/A,,Clear,340,2014-02-14 20:53:00
3:53 PM,59.0,24.1,26,29.90,10.0,NNW,24.2,39.1,N/A,,Clear,330,2014-02-14 21:53:00
4:53 PM,57.0,28.0,33,29.94,10.0,NNW,18.4,25.3,N/A,,Clear,330,2014-02-14 22:53:00
5:53 PM,53.1,28.0,38,29.98,10.0,NW,13.8,-,N/A,,Clear,320,2014-02-14 23:53:00
6:53 PM,48.9,28.0,44,30.02,10.0,NNW,8.1,-,N/A,,Clear,340,2014-02-15 00:53:00
7:53 PM,46.9,28.9,50,30.07,10.0,NNW,6.9,-,N/A,,Clear,330,2014-02-15 01:53:00
8:53 PM,46.0,28.0,50,30.09,10.0,NNW,10.4,-,N/A,,Clear,340,2014-02-15 02:53:00
9:53 PM,43.0,28.0,56,30.09,10.0,NNW,10.4,-,N/A,,Clear,340,2014-02-15 03:53:00
10:53 PM,39.9,28.0,63,30.11,10.0,North,11.5,-,N/A,,Clear,360,2014-02-15 04:53:00
11:53 PM,37.0,26.1,65,30.12,10.0,Calm,Calm,-,N/A,,Clear,0,2014-02-15 05:53:00